Weather History for Teterboro, NJ

Change the Weather History Date:

Sunday, December 1, 2013

  Actual Average Record
Temperature  
Mean Temperature 43 °F -  
Max Temperature 51 °F 47 °F 70 °F (2006)
Min Temperature 35 °F 32 °F 23 °F (1999)
Degree Days  
Heating Degree Days 22    
Moisture  
Dew Point 28 °F    
Average Humidity 58    
Maximum Humidity 70    
Minimum Humidity 41    
Precipitation  
Precipitation 0.00 in - - ()
Sea Level Pressure  
Sea Level Pressure 30.17 in    
Wind  
Wind Speed 3 mph (NNW)    
Max Wind Speed 6 mph    
Max Gust Speed -    
Visibility 10 miles    
Events      
Averages and records for this station are not official NWS values.
T = Trace of Precipitation, MM = Missing Value Source: NWS Daily Summary

Daily Weather History Graph

Daily Weather History Graph

Search for Another Location

Airport:

Trip Planner

Search our weather history database for the weather conditions in past years. The results will help you decide how hot, cold, wet, or windy it might be!

Date:

Astronomy

Dec. 01, 2013 Rise Set
Actual Time 7:01 AM EST 4:29 PM EST
Civil Twilight 6:31 AM EST 4:59 PM EST
Nautical Twilight 5:56 AM EST 5:33 PM EST
Astronomical Twilight 5:23 AM EST 6:06 PM EST
Moon 5:16 AM EST (12/1) 3:37 PM EST (12/1)
Length of Visible Light 10h 28m
Length of Day
9h 27m
Waning Crescent, 2% of the Moon is Illuminated
Dec 1
Waning Crescent
Dec 2
New
Dec 9
First Quarter
Dec 17
Full
Dec 25
Last Quarter

Hourly Weather History & Observations

Time (EST) Temp. Windchill Dew Point Humidity Pressure Visibility Wind Dir Wind Speed Gust Speed Precip Events Conditions
12:43 AM 37.4 °F 33.8 °F 24.8 °F 60% 30.36 in 10.0 mi North 4.6 mph - N/A   Overcast
12:51 AM 37.0 °F 32.4 °F 25.0 °F 62% 30.35 in 10.0 mi NNE 5.8 mph - N/A   Overcast
1:51 AM 37.0 °F 33.3 °F 25.0 °F 62% 30.34 in 10.0 mi NNW 4.6 mph - N/A   Overcast
2:51 AM 37.0 °F 33.3 °F 25.0 °F 62% 30.32 in 10.0 mi North 4.6 mph - N/A   Overcast
3:51 AM 37.0 °F 34.5 °F 26.1 °F 65% 30.29 in 10.0 mi North 3.5 mph - N/A   Overcast
4:34 AM 37.4 °F 34.9 °F 26.6 °F 65% 30.27 in 10.0 mi NNE 3.5 mph - N/A   Overcast
4:51 AM 37.0 °F - 26.1 °F 65% 30.26 in 10.0 mi Calm Calm - N/A   Overcast
5:51 AM 36.0 °F - 27.0 °F 70% 30.25 in 10.0 mi Calm Calm - N/A   Mostly Cloudy
6:35 AM 35.6 °F - 26.6 °F 70% 30.24 in 10.0 mi Calm Calm - N/A   Mostly Cloudy
6:46 AM 35.6 °F 32.8 °F 26.6 °F 70% 30.24 in 10.0 mi North 3.5 mph - N/A   Scattered Clouds
6:51 AM 35.1 °F 32.2 °F 26.1 °F 70% 30.25 in 10.0 mi North 3.5 mph - N/A   Partly Cloudy
7:51 AM 37.0 °F 34.5 °F 27.0 °F 67% 30.24 in 10.0 mi North 3.5 mph - N/A   Clear
8:51 AM 39.9 °F 37.8 °F 28.9 °F 65% 30.22 in 10.0 mi North 3.5 mph - N/A   Partly Cloudy
9:51 AM 43.0 °F - 30.0 °F 60% 30.21 in 10.0 mi Calm Calm - N/A   Mostly Cloudy
10:51 AM 45.0 °F - 30.9 °F 58% 30.18 in 10.0 mi Calm Calm - N/A   Scattered Clouds
11:51 AM 48.0 °F - 30.9 °F 52% 30.14 in 10.0 mi SSE 4.6 mph - N/A   Scattered Clouds
12:51 PM 48.9 °F - 30.0 °F 48% 30.11 in 10.0 mi NW 3.5 mph - N/A   Mostly Cloudy
1:51 PM 48.9 °F - 30.0 °F 48% 30.08 in 10.0 mi WNW 5.8 mph - N/A   Overcast
2:51 PM 51.1 °F - 28.0 °F 41% 30.07 in 10.0 mi Calm Calm - N/A   Scattered Clouds
3:51 PM 48.0 °F - 28.0 °F 46% 30.07 in 10.0 mi Calm Calm - N/A   Clear
4:51 PM 48.9 °F - 28.9 °F 46% 30.06 in 10.0 mi Calm Calm - N/A   Overcast
5:51 PM 48.0 °F - 30.0 °F 50% 30.05 in 10.0 mi Variable 3.5 mph - N/A   Overcast
6:51 PM 48.0 °F - 30.0 °F 50% 30.05 in 10.0 mi Calm Calm - N/A   Overcast
7:51 PM 48.0 °F - 30.0 °F 50% 30.05 in 10.0 mi SW 3.5 mph - N/A   Overcast
8:51 PM 45.0 °F 43.5 °F 28.9 °F 53% 30.04 in 10.0 mi SSW 3.5 mph - N/A   Mostly Cloudy
9:51 PM 44.1 °F - 28.9 °F 55% 30.03 in 10.0 mi Calm Calm - N/A   Partly Cloudy
10:51 PM 43.0 °F - 28.9 °F 58% 30.02 in 10.0 mi Calm Calm - N/A   Mostly Cloudy
11:35 PM 44.6 °F - 30.2 °F 57% 30.01 in 10.0 mi Calm Calm - N/A   Overcast
11:51 PM 43.0 °F - 30.0 °F 60% 30.01 in 10.0 mi Calm Calm - N/A   Overcast